Time,TemperatureF,DewpointF,PressureIn,WindDirection,WindDirectionDegrees,WindSpeedMPH,WindSpeedGustMPH,Humidity,HourlyPrecipIn,Conditions,Clouds,dailyrainin,SolarRadiationWatts/m^2,SoftwareType,DateUTC
2013-01-11 00:03:00,63.0,56.0,-100.00,SSE,156,8.0,15.0,77,0.00,,,0.16,0.000000,,2013-01-11 06:03:00,
2013-01-11 00:33:00,64.0,57.0,-100.00,South,171,8.0,19.0,77,0.00,,,0.16,0.000000,,2013-01-11 06:33:00,
2013-01-11 00:42:00,64.0,57.0,-100.00,South,171,8.0,19.0,77,0.00,,,0.16,0.000000,,2013-01-11 06:42:00,
2013-01-11 00:52:00,64.0,57.0,-100.00,South,171,8.0,19.0,77,0.00,,,0.16,0.000000,,2013-01-11 06:52:00,
2013-01-11 01:02:00,64.0,57.0,-100.00,South,171,8.0,19.0,77,0.00,,,0.16,0.000000,,2013-01-11 07:02:00,
2013-01-11 01:32:00,63.0,56.0,-100.00,SSE,164,6.0,18.0,77,0.00,,,-99.99,0.000000,,2013-01-11 07:32:00,
2013-01-11 01:42:00,63.0,56.0,-100.00,SSE,164,6.0,18.0,77,0.00,,,-99.99,0.000000,,2013-01-11 07:42:00,
2013-01-11 01:52:00,63.0,56.0,-100.00,SSE,164,6.0,18.0,77,0.00,,,-99.99,0.000000,,2013-01-11 07:52:00,
2013-01-11 02:02:00,63.0,56.0,-100.00,SSE,164,6.0,18.0,77,0.00,,,-99.99,0.000000,,2013-01-11 08:02:00,
2013-01-11 02:32:00,62.0,57.0,-100.00,SSE,164,6.0,16.0,83,0.00,,,0.15,0.000000,,2013-01-11 08:32:00,
2013-01-11 02:42:00,62.0,57.0,-100.00,SSE,164,6.0,16.0,83,0.00,,,0.15,0.000000,,2013-01-11 08:42:00,
2013-01-11 02:53:00,62.0,57.0,-100.00,SSE,164,6.0,16.0,83,0.00,,,0.15,0.000000,,2013-01-11 08:53:00,
2013-01-11 03:02:00,62.0,57.0,-100.00,SSE,164,6.0,16.0,83,0.00,,,0.15,0.000000,,2013-01-11 09:02:00,
2013-01-11 03:32:00,61.0,58.0,-100.00,SSE,167,6.0,16.0,89,0.02,,,0.14,0.000000,,2013-01-11 09:32:00,
2013-01-11 03:42:00,61.0,58.0,-100.00,SSE,167,6.0,16.0,89,0.02,,,0.14,0.000000,,2013-01-11 09:42:00,
2013-01-11 03:52:00,61.0,58.0,-100.00,SSE,167,6.0,16.0,89,0.02,,,0.14,0.000000,,2013-01-11 09:52:00,
2013-01-11 04:02:00,61.0,58.0,-100.00,SSE,167,6.0,16.0,89,0.02,,,0.14,0.000000,,2013-01-11 10:02:00,
2013-01-11 04:32:00,61.0,59.0,-100.00,South,171,6.0,15.0,94,0.01,,,0.14,0.000000,,2013-01-11 10:32:00,
2013-01-11 04:43:00,61.0,59.0,-100.00,South,171,6.0,15.0,94,0.01,,,0.14,0.000000,,2013-01-11 10:43:00,
2013-01-11 04:52:00,61.0,59.0,-100.00,South,171,6.0,15.0,94,0.01,,,0.14,0.000000,,2013-01-11 10:52:00,
2013-01-11 05:03:00,61.0,59.0,-100.00,South,171,6.0,15.0,94,0.01,,,0.14,0.000000,,2013-01-11 11:03:00,
2013-01-11 05:33:00,63.0,62.0,-100.00,SSW,208,8.0,15.0,96,0.00,,,0.07,0.000000,,2013-01-11 11:33:00,
2013-01-11 05:43:00,63.0,62.0,-100.00,SSW,208,8.0,15.0,96,0.00,,,0.07,0.000000,,2013-01-11 11:43:00,
2013-01-11 05:53:00,63.0,62.0,-100.00,SSW,208,8.0,15.0,96,0.00,,,0.07,0.000000,,2013-01-11 11:53:00,
2013-01-11 06:03:00,63.0,62.0,-100.00,SSW,208,8.0,15.0,96,0.00,,,0.07,0.000000,,2013-01-11 12:03:00,
2013-01-11 06:33:00,62.0,62.0,-100.00,SW,222,11.0,19.0,99,0.12,,,-99.99,0.000000,,2013-01-11 12:33:00,
2013-01-11 06:43:00,62.0,62.0,-100.00,SW,222,11.0,19.0,99,0.12,,,-99.99,0.000000,,2013-01-11 12:43:00,
2013-01-11 06:53:00,62.0,62.0,-100.00,SW,222,11.0,19.0,99,0.12,,,-99.99,0.000000,,2013-01-11 12:53:00,
2013-01-11 07:03:00,62.0,62.0,-100.00,SW,222,11.0,19.0,99,0.12,,,-99.99,0.000000,,2013-01-11 13:03:00,
2013-01-11 07:33:00,62.0,62.0,-100.00,SW,218,9.0,19.0,100,0.07,,,-99.99,0.000000,,2013-01-11 13:33:00,
2013-01-11 07:43:00,62.0,62.0,-100.00,SW,218,9.0,19.0,100,0.07,,,-99.99,0.000000,,2013-01-11 13:43:00,
2013-01-11 07:53:00,62.0,62.0,-100.00,SW,218,9.0,19.0,100,0.07,,,-99.99,0.000000,,2013-01-11 13:53:00,
2013-01-11 08:03:00,62.0,62.0,-100.00,SW,218,9.0,19.0,100,0.07,,,-99.99,0.000000,,2013-01-11 14:03:00,
2013-01-11 08:33:00,58.0,58.0,-100.00,WSW,249,9.0,16.0,100,0.24,,,0.46,7.000000,,2013-01-11 14:33:00,
2013-01-11 08:43:00,58.0,58.0,-100.00,WSW,249,9.0,16.0,100,0.24,,,0.46,7.000000,,2013-01-11 14:43:00,
2013-01-11 08:53:00,58.0,58.0,-100.00,WSW,249,9.0,16.0,100,0.24,,,0.46,7.000000,,2013-01-11 14:53:00,
2013-01-11 09:03:00,58.0,58.0,-100.00,WSW,249,9.0,16.0,100,0.24,,,0.46,7.000000,,2013-01-11 15:03:00,
2013-01-11 09:33:00,58.0,56.0,-100.00,SW,225,5.0,15.0,94,0.02,,,0.48,47.000000,,2013-01-11 15:33:00,
2013-01-11 09:43:00,58.0,56.0,-100.00,SW,225,5.0,15.0,94,0.02,,,0.48,47.000000,,2013-01-11 15:43:00,
2013-01-11 09:53:00,58.0,56.0,-100.00,SW,225,5.0,15.0,94,0.02,,,0.48,47.000000,,2013-01-11 15:53:00,
2013-01-11 10:03:00,58.0,56.0,-100.00,SW,225,5.0,15.0,94,0.02,,,0.48,47.000000,,2013-01-11 16:03:00,
2013-01-11 11:33:00,61.0,56.0,-100.00,SW,219,6.0,14.0,84,-99.99,,,-99.99,142.000000,,2013-01-11 17:33:00,
2013-01-11 11:43:00,61.0,56.0,-100.00,SW,219,6.0,14.0,84,-99.99,,,-99.99,142.000000,,2013-01-11 17:43:00,
2013-01-11 11:53:00,61.0,56.0,-100.00,SW,219,6.0,14.0,84,-99.99,,,-99.99,142.000000,,2013-01-11 17:53:00,
2013-01-11 12:03:00,61.0,56.0,-100.00,SW,219,6.0,14.0,84,-99.99,,,-99.99,142.000000,,2013-01-11 18:03:00,
2013-01-11 12:33:00,62.0,57.0,-100.00,SSW,207,6.0,12.0,84,0.00,,,-99.99,208.000000,,2013-01-11 18:33:00,
2013-01-11 12:43:00,62.0,57.0,-100.00,SSW,207,6.0,12.0,84,0.00,,,-99.99,208.000000,,2013-01-11 18:43:00,
2013-01-11 12:53:00,62.0,57.0,-100.00,SSW,207,6.0,12.0,84,0.00,,,-99.99,208.000000,,2013-01-11 18:53:00,
2013-01-11 13:02:00,62.0,57.0,-100.00,SSW,207,6.0,12.0,84,0.00,,,-99.99,208.000000,,2013-01-11 19:02:00,
2013-01-11 13:33:00,65.0,60.0,-100.00,SSW,212,7.0,13.0,85,0.00,,,-99.99,264.000000,,2013-01-11 19:33:00,
2013-01-11 13:43:00,65.0,60.0,-100.00,SSW,212,7.0,13.0,85,0.00,,,-99.99,264.000000,,2013-01-11 19:43:00,
2013-01-11 13:53:00,65.0,60.0,-100.00,SSW,212,7.0,13.0,85,0.00,,,-99.99,264.000000,,2013-01-11 19:53:00,
2013-01-11 14:03:00,65.0,60.0,-100.00,SSW,212,7.0,13.0,85,0.00,,,-99.99,264.000000,,2013-01-11 20:03:00,
2013-01-11 14:33:00,66.0,59.0,-100.00,SW,224,8.0,15.0,77,0.00,,,-99.99,234.000000,,2013-01-11 20:33:00,
2013-01-11 14:43:00,66.0,59.0,-100.00,SW,224,8.0,15.0,77,0.00,,,-99.99,234.000000,,2013-01-11 20:43:00,
2013-01-11 14:53:00,66.0,59.0,-100.00,SW,224,8.0,15.0,77,0.00,,,-99.99,234.000000,,2013-01-11 20:53:00,
2013-01-11 15:03:00,66.0,59.0,-100.00,SW,224,8.0,15.0,77,0.00,,,-99.99,234.000000,,2013-01-11 21:03:00,
2013-01-11 15:33:00,69.0,61.0,-100.00,SW,223,10.0,15.0,76,0.00,,,-99.99,207.000000,,2013-01-11 21:33:00,
2013-01-11 15:43:00,69.0,61.0,-100.00,SW,223,10.0,15.0,76,0.00,,,-99.99,207.000000,,2013-01-11 21:43:00,
2013-01-11 15:53:00,69.0,61.0,-100.00,SW,223,10.0,15.0,76,0.00,,,-99.99,207.000000,,2013-01-11 21:53:00,
2013-01-11 16:02:00,69.0,61.0,-100.00,SW,223,10.0,15.0,76,0.00,,,-99.99,207.000000,,2013-01-11 22:02:00,
2013-01-11 16:33:00,67.0,57.0,-100.00,SW,217,7.0,16.0,71,0.00,,,-99.99,130.000000,,2013-01-11 22:33:00,
2013-01-11 16:42:00,67.0,57.0,-100.00,SW,217,7.0,16.0,71,0.00,,,-99.99,130.000000,,2013-01-11 22:42:00,
2013-01-11 16:53:00,67.0,57.0,-100.00,SW,217,7.0,16.0,71,0.00,,,-99.99,130.000000,,2013-01-11 22:53:00,
2013-01-11 17:02:00,67.0,57.0,-100.00,SW,217,7.0,16.0,71,0.00,,,-99.99,130.000000,,2013-01-11 23:02:00,
2013-01-11 17:33:00,64.0,58.0,-100.00,SSW,211,4.0,11.0,80,0.00,,,-99.99,12.000000,,2013-01-11 23:33:00,
2013-01-11 17:43:00,64.0,58.0,-100.00,SSW,211,4.0,11.0,80,0.00,,,-99.99,12.000000,,2013-01-11 23:43:00,
2013-01-11 17:53:00,64.0,58.0,-100.00,SSW,211,4.0,11.0,80,0.00,,,-99.99,12.000000,,2013-01-11 23:53:00,
2013-01-11 18:02:00,64.0,58.0,-100.00,SSW,211,4.0,11.0,80,0.00,,,-99.99,12.000000,,2013-01-12 00:02:00,
2013-01-11 18:33:00,63.0,58.0,-100.00,SSW,205,5.0,9.0,83,0.00,,,-99.99,0.000000,,2013-01-12 00:33:00,
2013-01-11 18:43:00,63.0,58.0,-100.00,SSW,205,5.0,9.0,83,0.00,,,-99.99,0.000000,,2013-01-12 00:43:00,
2013-01-11 18:53:00,63.0,58.0,-100.00,SSW,205,5.0,9.0,83,0.00,,,-99.99,0.000000,,2013-01-12 00:53:00,
2013-01-11 19:02:00,63.0,58.0,-100.00,SSW,205,5.0,9.0,83,0.00,,,-99.99,0.000000,,2013-01-12 01:02:00,
2013-01-11 19:33:00,63.0,58.0,-100.00,SSW,210,8.0,15.0,85,0.00,,,-99.99,0.000000,,2013-01-12 01:33:00,
2013-01-11 19:43:00,63.0,58.0,-100.00,SSW,210,8.0,15.0,85,0.00,,,-99.99,0.000000,,2013-01-12 01:43:00,
2013-01-11 19:52:00,63.0,58.0,-100.00,SSW,210,8.0,15.0,85,0.00,,,-99.99,0.000000,,2013-01-12 01:52:00,
2013-01-11 20:02:00,63.0,58.0,-100.00,SSW,210,8.0,15.0,85,0.00,,,-99.99,0.000000,,2013-01-12 02:02:00,
2013-01-11 20:33:00,63.0,59.0,-100.00,SSW,209,6.0,13.0,87,0.00,,,-99.99,0.000000,,2013-01-12 02:33:00,
2013-01-11 20:43:00,63.0,59.0,-100.00,SSW,209,6.0,13.0,87,0.00,,,-99.99,0.000000,,2013-01-12 02:43:00,
2013-01-11 20:53:00,63.0,59.0,-100.00,SSW,209,6.0,13.0,87,0.00,,,-99.99,0.000000,,2013-01-12 02:53:00,
2013-01-11 21:02:00,63.0,59.0,-100.00,SSW,209,6.0,13.0,87,0.00,,,-99.99,0.000000,,2013-01-12 03:02:00,
2013-01-11 21:33:00,62.0,59.0,-100.00,SSW,201,6.0,12.0,91,0.00,,,-99.99,0.000000,,2013-01-12 03:33:00,
2013-01-11 21:43:00,62.0,59.0,-100.00,SSW,201,6.0,12.0,91,0.00,,,-99.99,0.000000,,2013-01-12 03:43:00,
2013-01-11 21:53:00,62.0,59.0,-100.00,SSW,201,6.0,12.0,91,0.00,,,-99.99,0.000000,,2013-01-12 03:53:00,
2013-01-11 22:02:00,62.0,59.0,-100.00,SSW,201,6.0,12.0,91,0.00,,,-99.99,0.000000,,2013-01-12 04:02:00,
2013-01-11 22:33:00,62.0,60.0,-100.00,SSW,204,6.0,12.0,92,0.00,,,-99.99,0.000000,,2013-01-12 04:33:00,
2013-01-11 22:43:00,62.0,60.0,-100.00,SSW,204,6.0,12.0,92,0.00,,,-99.99,0.000000,,2013-01-12 04:43:00,
2013-01-11 22:52:00,62.0,60.0,-100.00,SSW,204,6.0,12.0,92,0.00,,,-99.99,0.000000,,2013-01-12 04:52:00,
2013-01-11 23:03:00,62.0,60.0,-100.00,SSW,204,6.0,12.0,92,0.00,,,-99.99,0.000000,,2013-01-12 05:03:00,
2013-01-11 23:32:00,64.0,61.0,-100.00,SW,216,8.0,16.0,91,0.00,,,-99.99,0.000000,,2013-01-12 05:32:00,
2013-01-11 23:42:00,64.0,61.0,-100.00,SW,216,8.0,16.0,91,0.00,,,-99.99,0.000000,,2013-01-12 05:42:00,
2013-01-11 23:52:00,64.0,61.0,-100.00,SW,216,8.0,16.0,91,0.00,,,-99.99,0.000000,,2013-01-12 05:52:00,